owner,sensor,date,latitude,longitude,vertical_datum,sea_water_practical_salinity,qcFlag 
ENP,ioos.station.NOAA.NDBC:JKYF1:1,2016-09-01T00:00:00Z,25.0530,-80.9040,1.5,37.59,1111122 
ENP,ioos.station.NOAA.NDBC:JKYF1:1,2016-09-01T02:00:00Z,25.0530,-80.9040,1.5,37.64,1111122 
ENP,ioos.station.NOAA.NDBC:JKYF1:1,2016-09-01T03:00:00Z,25.0530,-80.9040,1.5,37.65,1111122 
ENP,ioos.station.NOAA.NDBC:JKYF1:1,2016-09-01T04:00:00Z,25.0530,-80.9040,1.5,37.65,1111122 
ENP,ioos.station.NOAA.NDBC:JKYF1:1,2016-09-01T06:00:00Z,25.0530,-80.9040,1.5,37.61,1111122 
ENP,ioos.station.NOAA.NDBC:JKYF1:1,2016-09-01T07:00:00Z,25.0530,-80.9040,1.5,37.59,1111122 
ENP,ioos.station.NOAA.NDBC:JKYF1:1,2016-09-01T08:00:00Z,25.0530,-80.9040,1.5,37.58,1111122 
ENP,ioos.station.NOAA.NDBC:JKYF1:1,2016-09-01T10:00:00Z,25.0530,-80.9040,1.5,37.58,1111122 
ENP,ioos.station.NOAA.NDBC:JKYF1:1,2016-09-01T11:00:00Z,25.0530,-80.9040,1.5,37.56,1111122 
ENP,ioos.station.NOAA.NDBC:JKYF1:1,2016-09-01T12:00:00Z,25.0530,-80.9040,1.5,37.49,1111122 
ENP,ioos.station.NOAA.NDBC:JKYF1:1,2016-09-01T19:00:00Z,25.0530,-80.9040,1.5,38.0,1111122 
ENP,ioos.station.NOAA.NDBC:JKYF1:1,2016-09-02T11:00:00Z,25.0530,-80.9040,1.5,37.03,1111122 
ENP,ioos.station.NOAA.NDBC:JKYF1:1,2016-09-02T12:00:00Z,25.0530,-80.9040,1.5,36.77,1111122 
ENP,ioos.station.NOAA.NDBC:JKYF1:1,2016-09-02T13:00:00Z,25.0530,-80.9040,1.5,36.66,1111122 
ENP,ioos.station.NOAA.NDBC:JKYF1:1,2016-09-02T14:00:00Z,25.0530,-80.9040,1.5,36.65,1111122 
ENP,ioos.station.NOAA.NDBC:JKYF1:1,2016-09-02T15:00:00Z,25.0530,-80.9040,1.5,36.71,1111122 
ENP,ioos.station.NOAA.NDBC:JKYF1:1,2016-09-02T16:00:00Z,25.0530,-80.9040,1.5,36.92,1111122 
ENP,ioos.station.NOAA.NDBC:JKYF1:1,2016-09-02T17:00:00Z,25.0530,-80.9040,1.5,37.07,1111122 
ENP,ioos.station.NOAA.NDBC:JKYF1:1,2016-09-02T18:00:00Z,25.0530,-80.9040,1.5,37.11,1111122 
ENP,ioos.station.NOAA.NDBC:JKYF1:1,2016-09-02T19:00:00Z,25.0530,-80.9040,1.5,37.15,1111122 
ENP,ioos.station.NOAA.NDBC:JKYF1:1,2016-09-02T20:00:00Z,25.0530,-80.9040,1.5,37.15,1111122 
ENP,ioos.station.NOAA.NDBC:JKYF1:1,2016-09-02T21:00:00Z,25.0530,-80.9040,1.5,36.21,1111122 
ENP,ioos.station.NOAA.NDBC:JKYF1:1,2016-09-02T22:00:00Z,25.0530,-80.9040,1.5,36.12,1111122 
ENP,ioos.station.NOAA.NDBC:JKYF1:1,2016-09-02T23:00:00Z,25.0530,-80.9040,1.5,35.82,1111122 
ENP,ioos.station.NOAA.NDBC:JKYF1:1,2016-09-03T00:00:00Z,25.0530,-80.9040,1.5,35.51,1111122 
ENP,ioos.station.NOAA.NDBC:JKYF1:1,2016-09-03T02:00:00Z,25.0530,-80.9040,1.5,35.5,1111122 
ENP,ioos.station.NOAA.NDBC:JKYF1:1,2016-09-03T03:00:00Z,25.0530,-80.9040,1.5,35.57,1111122 
ENP,ioos.station.NOAA.NDBC:JKYF1:1,2016-09-03T04:00:00Z,25.0530,-80.9040,1.5,35.99,1111122 
ENP,ioos.station.NOAA.NDBC:JKYF1:1,2016-09-03T06:00:00Z,25.0530,-80.9040,1.5,36.64,1111122 
ENP,ioos.station.NOAA.NDBC:JKYF1:1,2016-09-03T07:00:00Z,25.0530,-80.9040,1.5,36.66,1111122 
ENP,ioos.station.NOAA.NDBC:JKYF1:1,2016-09-03T08:00:00Z,25.0530,-80.9040,1.5,36.64,1111122 
ENP,ioos.station.NOAA.NDBC:JKYF1:1,2016-09-03T10:00:00Z,25.0530,-80.9040,1.5,36.12,1111122 
ENP,ioos.station.NOAA.NDBC:JKYF1:1,2016-09-03T11:00:00Z,25.0530,-80.9040,1.5,36.24,1111122 
ENP,ioos.station.NOAA.NDBC:JKYF1:1,2016-09-03T12:00:00Z,25.0530,-80.9040,1.5,35.63,1111122 
ENP,ioos.station.NOAA.NDBC:JKYF1:1,2016-09-03T13:00:00Z,25.0530,-80.9040,1.5,35.45,1111122 
ENP,ioos.station.NOAA.NDBC:JKYF1:1,2016-09-03T14:00:00Z,25.0530,-80.9040,1.5,35.42,1111122 
ENP,ioos.station.NOAA.NDBC:JKYF1:1,2016-09-03T15:00:00Z,25.0530,-80.9040,1.5,35.44,1111122 
ENP,ioos.station.NOAA.NDBC:JKYF1:1,2016-09-03T16:00:00Z,25.0530,-80.9040,1.5,35.69,1111122 
ENP,ioos.station.NOAA.NDBC:JKYF1:1,2016-09-03T17:00:00Z,25.0530,-80.9040,1.5,36.06,1111122 
ENP,ioos.station.NOAA.NDBC:JKYF1:1,2016-09-03T18:00:00Z,25.0530,-80.9040,1.5,36.27,1111122 
ENP,ioos.station.NOAA.NDBC:JKYF1:1,2016-09-03T19:00:00Z,25.0530,-80.9040,1.5,36.3,1111122 
ENP,ioos.station.NOAA.NDBC:JKYF1:1,2016-09-03T20:00:00Z,25.0530,-80.9040,1.5,36.48,1111122 
ENP,ioos.station.NOAA.NDBC:JKYF1:1,2016-09-03T21:00:00Z,25.0530,-80.9040,1.5,36.31,1111122 
ENP,ioos.station.NOAA.NDBC:JKYF1:1,2016-09-03T22:00:00Z,25.0530,-80.9040,1.5,35.46,1111122 
ENP,ioos.station.NOAA.NDBC:JKYF1:1,2016-09-03T23:00:00Z,25.0530,-80.9040,1.5,34.89,1111122 
ENP,ioos.station.NOAA.NDBC:JKYF1:1,2016-09-04T00:00:00Z,25.0530,-80.9040,1.5,34.86,1111122 
ENP,ioos.station.NOAA.NDBC:JKYF1:1,2016-09-04T02:00:00Z,25.0530,-80.9040,1.5,34.69,1111122 
ENP,ioos.station.NOAA.NDBC:JKYF1:1,2016-09-04T03:00:00Z,25.0530,-80.9040,1.5,34.72,1111122 
ENP,ioos.station.NOAA.NDBC:JKYF1:1,2016-09-04T04:00:00Z,25.0530,-80.9040,1.5,34.86,1111122 
ENP,ioos.station.NOAA.NDBC:JKYF1:1,2016-09-04T06:00:00Z,25.0530,-80.9040,1.5,35.23,1111122 
ENP,ioos.station.NOAA.NDBC:JKYF1:1,2016-09-04T07:00:00Z,25.0530,-80.9040,1.5,35.28,1111122 
ENP,ioos.station.NOAA.NDBC:JKYF1:1,2016-09-04T08:00:00Z,25.0530,-80.9040,1.5,35.03,1111122 
ENP,ioos.station.NOAA.NDBC:JKYF1:1,2016-09-04T09:00:00Z,25.0530,-80.9040,1.5,34.91,1111122 
ENP,ioos.station.NOAA.NDBC:JKYF1:1,2016-09-04T11:00:00Z,25.0530,-80.9040,1.5,34.68,1111122 
ENP,ioos.station.NOAA.NDBC:JKYF1:1,2016-09-04T12:00:00Z,25.0530,-80.9040,1.5,34.59,1111122 
ENP,ioos.station.NOAA.NDBC:JKYF1:1,2016-09-04T13:00:00Z,25.0530,-80.9040,1.5,34.49,1111122 
ENP,ioos.station.NOAA.NDBC:JKYF1:1,2016-09-04T14:00:00Z,25.0530,-80.9040,1.5,34.46,1111122 
ENP,ioos.station.NOAA.NDBC:JKYF1:1,2016-09-04T15:00:00Z,25.0530,-80.9040,1.5,34.48,1111122 
ENP,ioos.station.NOAA.NDBC:JKYF1:1,2016-09-04T16:00:00Z,25.0530,-80.9040,1.5,34.54,1111122 
ENP,ioos.station.NOAA.NDBC:JKYF1:1,2016-09-04T17:00:00Z,25.0530,-80.9040,1.5,34.64,1111122 
ENP,ioos.station.NOAA.NDBC:JKYF1:1,2016-09-04T18:00:00Z,25.0530,-80.9040,1.5,34.81,1111122 
ENP,ioos.station.NOAA.NDBC:JKYF1:1,2016-09-04T19:00:00Z,25.0530,-80.9040,1.5,35.02,1111122 
ENP,ioos.station.NOAA.NDBC:JKYF1:1,2016-09-04T20:00:00Z,25.0530,-80.9040,1.5,35.12,1111122 
ENP,ioos.station.NOAA.NDBC:JKYF1:1,2016-09-04T21:00:00Z,25.0530,-80.9040,1.5,35.03,1111122 
ENP,ioos.station.NOAA.NDBC:JKYF1:1,2016-09-04T22:00:00Z,25.0530,-80.9040,1.5,35.2,1111122 
ENP,ioos.station.NOAA.NDBC:JKYF1:1,2016-09-04T23:00:00Z,25.0530,-80.9040,1.5,35.13,1111122 
ENP,ioos.station.NOAA.NDBC:JKYF1:1,2016-09-05T00:00:00Z,25.0530,-80.9040,1.5,35.04,1111122 
ENP,ioos.station.NOAA.NDBC:JKYF1:1,2016-09-05T02:00:00Z,25.0530,-80.9040,1.5,34.92,1111122 
ENP,ioos.station.NOAA.NDBC:JKYF1:1,2016-09-05T03:00:00Z,25.0530,-80.9040,1.5,34.88,1111122 
ENP,ioos.station.NOAA.NDBC:JKYF1:1,2016-09-05T05:00:00Z,25.0530,-80.9040,1.5,35.0,1111122 
ENP,ioos.station.NOAA.NDBC:JKYF1:1,2016-09-05T06:00:00Z,25.0530,-80.9040,1.5,35.11,1111122 
ENP,ioos.station.NOAA.NDBC:JKYF1:1,2016-09-05T07:00:00Z,25.0530,-80.9040,1.5,35.2,1111122 
ENP,ioos.station.NOAA.NDBC:JKYF1:1,2016-09-05T08:00:00Z,25.0530,-80.9040,1.5,35.07,1111122 
ENP,ioos.station.NOAA.NDBC:JKYF1:1,2016-09-05T10:00:00Z,25.0530,-80.9040,1.5,35.06,1111122 
ENP,ioos.station.NOAA.NDBC:JKYF1:1,2016-09-05T11:00:00Z,25.0530,-80.9040,1.5,35.0,1111122 
ENP,ioos.station.NOAA.NDBC:JKYF1:1,2016-09-05T12:00:00Z,25.0530,-80.9040,1.5,34.98,1111122 
ENP,ioos.station.NOAA.NDBC:JKYF1:1,2016-09-05T13:00:00Z,25.0530,-80.9040,1.5,34.86,1111122 
ENP,ioos.station.NOAA.NDBC:JKYF1:1,2016-09-05T14:00:00Z,25.0530,-80.9040,1.5,34.65,1111122 
ENP,ioos.station.NOAA.NDBC:JKYF1:1,2016-09-05T15:00:00Z,25.0530,-80.9040,1.5,34.59,1111122 
ENP,ioos.station.NOAA.NDBC:JKYF1:1,2016-09-05T16:00:00Z,25.0530,-80.9040,1.5,34.61,1111122 
ENP,ioos.station.NOAA.NDBC:JKYF1:1,2016-09-05T17:00:00Z,25.0530,-80.9040,1.5,34.64,1111122 
ENP,ioos.station.NOAA.NDBC:JKYF1:1,2016-09-05T18:00:00Z,25.0530,-80.9040,1.5,34.69,1111122 
ENP,ioos.station.NOAA.NDBC:JKYF1:1,2016-09-05T19:00:00Z,25.0530,-80.9040,1.5,34.75,1111122 
ENP,ioos.station.NOAA.NDBC:JKYF1:1,2016-09-05T20:00:00Z,25.0530,-80.9040,1.5,34.8,1111122 
ENP,ioos.station.NOAA.NDBC:JKYF1:1,2016-09-05T21:00:00Z,25.0530,-80.9040,1.5,34.82,1111122 
ENP,ioos.station.NOAA.NDBC:JKYF1:1,2016-09-05T22:00:00Z,25.0530,-80.9040,1.5,34.94,1111122 
ENP,ioos.station.NOAA.NDBC:JKYF1:1,2016-09-05T23:00:00Z,25.0530,-80.9040,1.5,35.2,1111122 
ENP,ioos.station.NOAA.NDBC:JKYF1:1,2016-09-06T00:00:00Z,25.0530,-80.9040,1.5,35.25,1111122 
ENP,ioos.station.NOAA.NDBC:JKYF1:1,2016-09-06T02:00:00Z,25.0530,-80.9040,1.5,34.85,1111122 
ENP,ioos.station.NOAA.NDBC:JKYF1:1,2016-09-06T03:00:00Z,25.0530,-80.9040,1.5,34.78,1111122 
ENP,ioos.station.NOAA.NDBC:JKYF1:1,2016-09-06T05:00:00Z,25.0530,-80.9040,1.5,34.75,1111122 
ENP,ioos.station.NOAA.NDBC:JKYF1:1,2016-09-06T06:00:00Z,25.0530,-80.9040,1.5,34.72,1111122 
ENP,ioos.station.NOAA.NDBC:JKYF1:1,2016-09-06T07:00:00Z,25.0530,-80.9040,1.5,34.72,1111122 
ENP,ioos.station.NOAA.NDBC:JKYF1:1,2016-09-06T08:00:00Z,25.0530,-80.9040,1.5,34.67,1111122 
ENP,ioos.station.NOAA.NDBC:JKYF1:1,2016-09-06T09:00:00Z,25.0530,-80.9040,1.5,34.66,1111122 
ENP,ioos.station.NOAA.NDBC:JKYF1:1,2016-09-06T10:00:00Z,25.0530,-80.9040,1.5,34.68,1111122 
ENP,ioos.station.NOAA.NDBC:JKYF1:1,2016-09-06T11:00:00Z,25.0530,-80.9040,1.5,34.72,1111122 
ENP,ioos.station.NOAA.NDBC:JKYF1:1,2016-09-06T12:00:00Z,25.0530,-80.9040,1.5,34.74,1111122 
ENP,ioos.station.NOAA.NDBC:JKYF1:1,2016-09-06T13:00:00Z,25.0530,-80.9040,1.5,34.73,1111122 
ENP,ioos.station.NOAA.NDBC:JKYF1:1,2016-09-06T14:00:00Z,25.0530,-80.9040,1.5,34.69,1111122 
ENP,ioos.station.NOAA.NDBC:JKYF1:1,2016-09-06T15:00:00Z,25.0530,-80.9040,1.5,34.69,1111122 
ENP,ioos.station.NOAA.NDBC:JKYF1:1,2016-09-06T16:00:00Z,25.0530,-80.9040,1.5,34.71,1111122 
ENP,ioos.station.NOAA.NDBC:JKYF1:1,2016-09-06T17:00:00Z,25.0530,-80.9040,1.5,34.73,1111122 
ENP,ioos.station.NOAA.NDBC:JKYF1:1,2016-09-06T18:00:00Z,25.0530,-80.9040,1.5,34.79,1111122 
ENP,ioos.station.NOAA.NDBC:JKYF1:1,2016-09-06T19:00:00Z,25.0530,-80.9040,1.5,34.84,1111122 
ENP,ioos.station.NOAA.NDBC:JKYF1:1,2016-09-06T20:00:00Z,25.0530,-80.9040,1.5,34.9,1111122 
ENP,ioos.station.NOAA.NDBC:JKYF1:1,2016-09-06T21:00:00Z,25.0530,-80.9040,1.5,34.96,1111122 
ENP,ioos.station.NOAA.NDBC:JKYF1:1,2016-09-06T22:00:00Z,25.0530,-80.9040,1.5,34.35,1111122 
ENP,ioos.station.NOAA.NDBC:JKYF1:1,2016-09-06T23:00:00Z,25.0530,-80.9040,1.5,34.16,1111122 
ENP,ioos.station.NOAA.NDBC:JKYF1:1,2016-09-07T00:00:00Z,25.0530,-80.9040,1.5,34.22,1111122 
ENP,ioos.station.NOAA.NDBC:JKYF1:1,2016-09-07T03:00:00Z,25.0530,-80.9040,1.5,34.48,1111122 
ENP,ioos.station.NOAA.NDBC:JKYF1:1,2016-09-07T05:00:00Z,25.0530,-80.9040,1.5,34.54,1111122 
ENP,ioos.station.NOAA.NDBC:JKYF1:1,2016-09-07T06:00:00Z,25.0530,-80.9040,1.5,34.52,1111122 
ENP,ioos.station.NOAA.NDBC:JKYF1:1,2016-09-07T07:00:00Z,25.0530,-80.9040,1.5,34.45,1111122 
ENP,ioos.station.NOAA.NDBC:JKYF1:1,2016-09-07T08:00:00Z,25.0530,-80.9040,1.5,34.41,1111122 
ENP,ioos.station.NOAA.NDBC:JKYF1:1,2016-09-07T10:00:00Z,25.0530,-80.9040,1.5,34.37,1111122 
ENP,ioos.station.NOAA.NDBC:JKYF1:1,2016-09-07T11:00:00Z,25.0530,-80.9040,1.5,34.23,1111122 
ENP,ioos.station.NOAA.NDBC:JKYF1:1,2016-09-07T12:00:00Z,25.0530,-80.9040,1.5,34.23,1111122 
ENP,ioos.station.NOAA.NDBC:JKYF1:1,2016-09-07T13:00:00Z,25.0530,-80.9040,1.5,34.25,1111122 
ENP,ioos.station.NOAA.NDBC:JKYF1:1,2016-09-07T14:00:00Z,25.0530,-80.9040,1.5,34.31,1111122 
ENP,ioos.station.NOAA.NDBC:JKYF1:1,2016-09-07T18:00:00Z,25.0530,-80.9040,1.5,34.56,1111122 
ENP,ioos.station.NOAA.NDBC:JKYF1:1,2016-09-07T19:00:00Z,25.0530,-80.9040,1.5,34.55,1111122 
ENP,ioos.station.NOAA.NDBC:JKYF1:1,2016-09-07T20:00:00Z,25.0530,-80.9040,1.5,34.66,1111122 
ENP,ioos.station.NOAA.NDBC:JKYF1:1,2016-09-07T21:00:00Z,25.0530,-80.9040,1.5,34.75,1111122 
ENP,ioos.station.NOAA.NDBC:JKYF1:1,2016-09-07T22:00:00Z,25.0530,-80.9040,1.5,34.82,1111122 
ENP,ioos.station.NOAA.NDBC:JKYF1:1,2016-09-07T23:00:00Z,25.0530,-80.9040,1.5,34.89,1111122 
ENP,ioos.station.NOAA.NDBC:JKYF1:1,2016-09-08T00:00:00Z,25.0530,-80.9040,1.5,34.89,1111122 
ENP,ioos.station.NOAA.NDBC:JKYF1:1,2016-09-08T02:00:00Z,25.0530,-80.9040,1.5,34.93,1111122 
ENP,ioos.station.NOAA.NDBC:JKYF1:1,2016-09-08T03:00:00Z,25.0530,-80.9040,1.5,35.03,1111122 
ENP,ioos.station.NOAA.NDBC:JKYF1:1,2016-09-08T05:00:00Z,25.0530,-80.9040,1.5,35.2,1111122 
ENP,ioos.station.NOAA.NDBC:JKYF1:1,2016-09-08T06:00:00Z,25.0530,-80.9040,1.5,35.22,1111122 
ENP,ioos.station.NOAA.NDBC:JKYF1:1,2016-09-08T07:00:00Z,25.0530,-80.9040,1.5,35.28,1111122 
ENP,ioos.station.NOAA.NDBC:JKYF1:1,2016-09-08T08:00:00Z,25.0530,-80.9040,1.5,35.31,1111122 
ENP,ioos.station.NOAA.NDBC:JKYF1:1,2016-09-08T09:00:00Z,25.0530,-80.9040,1.5,35.31,1111122 
ENP,ioos.station.NOAA.NDBC:JKYF1:1,2016-09-08T10:00:00Z,25.0530,-80.9040,1.5,35.29,1111122 
ENP,ioos.station.NOAA.NDBC:JKYF1:1,2016-09-08T11:00:00Z,25.0530,-80.9040,1.5,35.15,1111122 
ENP,ioos.station.NOAA.NDBC:JKYF1:1,2016-09-08T12:00:00Z,25.0530,-80.9040,1.5,35.11,1111122 
ENP,ioos.station.NOAA.NDBC:JKYF1:1,2016-09-08T13:00:00Z,25.0530,-80.9040,1.5,35.12,1111122 
ENP,ioos.station.NOAA.NDBC:JKYF1:1,2016-09-08T14:00:00Z,25.0530,-80.9040,1.5,35.13,1111122 
ENP,ioos.station.NOAA.NDBC:JKYF1:1,2016-09-08T15:00:00Z,25.0530,-80.9040,1.5,35.15,1111122 
ENP,ioos.station.NOAA.NDBC:JKYF1:1,2016-09-08T16:00:00Z,25.0530,-80.9040,1.5,35.2,1111122 
ENP,ioos.station.NOAA.NDBC:JKYF1:1,2016-09-08T17:00:00Z,25.0530,-80.9040,1.5,35.09,1111122 
ENP,ioos.station.NOAA.NDBC:JKYF1:1,2016-09-08T18:00:00Z,25.0530,-80.9040,1.5,35.03,1111122 
ENP,ioos.station.NOAA.NDBC:JKYF1:1,2016-09-08T19:00:00Z,25.0530,-80.9040,1.5,35.04,1111122 
ENP,ioos.station.NOAA.NDBC:JKYF1:1,2016-09-08T20:00:00Z,25.0530,-80.9040,1.5,35.05,1111122 
ENP,ioos.station.NOAA.NDBC:JKYF1:1,2016-09-08T21:00:00Z,25.0530,-80.9040,1.5,35.07,1111122 
ENP,ioos.station.NOAA.NDBC:JKYF1:1,2016-09-08T22:00:00Z,25.0530,-80.9040,1.5,35.1,1111122 
ENP,ioos.station.NOAA.NDBC:JKYF1:1,2016-09-08T23:00:00Z,25.0530,-80.9040,1.5,35.11,1111122 
ENP,ioos.station.NOAA.NDBC:JKYF1:1,2016-09-09T00:00:00Z,25.0530,-80.9040,1.5,35.12,1111122 
ENP,ioos.station.NOAA.NDBC:JKYF1:1,2016-09-09T03:00:00Z,25.0530,-80.9040,1.5,35.23,1111122 
ENP,ioos.station.NOAA.NDBC:JKYF1:1,2016-09-09T05:00:00Z,25.0530,-80.9040,1.5,35.31,1111122 
ENP,ioos.station.NOAA.NDBC:JKYF1:1,2016-09-09T06:00:00Z,25.0530,-80.9040,1.5,35.4,1111122 
ENP,ioos.station.NOAA.NDBC:JKYF1:1,2016-09-09T07:00:00Z,25.0530,-80.9040,1.5,35.51,1111122 
ENP,ioos.station.NOAA.NDBC:JKYF1:1,2016-09-09T08:00:00Z,25.0530,-80.9040,1.5,35.54,1111122 
ENP,ioos.station.NOAA.NDBC:JKYF1:1,2016-09-09T09:00:00Z,25.0530,-80.9040,1.5,35.61,1111122 
ENP,ioos.station.NOAA.NDBC:JKYF1:1,2016-09-09T10:00:00Z,25.0530,-80.9040,1.5,35.66,1111122 
ENP,ioos.station.NOAA.NDBC:JKYF1:1,2016-09-09T11:00:00Z,25.0530,-80.9040,1.5,35.68,1111122 
ENP,ioos.station.NOAA.NDBC:JKYF1:1,2016-09-09T12:00:00Z,25.0530,-80.9040,1.5,35.51,1111122 
ENP,ioos.station.NOAA.NDBC:JKYF1:1,2016-09-09T13:00:00Z,25.0530,-80.9040,1.5,35.46,1111122 
ENP,ioos.station.NOAA.NDBC:JKYF1:1,2016-09-09T14:00:00Z,25.0530,-80.9040,1.5,35.48,1111122 
ENP,ioos.station.NOAA.NDBC:JKYF1:1,2016-09-09T15:00:00Z,25.0530,-80.9040,1.5,35.54,1111122 
ENP,ioos.station.NOAA.NDBC:JKYF1:1,2016-09-09T16:00:00Z,25.0530,-80.9040,1.5,35.7,1111122 
ENP,ioos.station.NOAA.NDBC:JKYF1:1,2016-09-09T17:00:00Z,25.0530,-80.9040,1.5,35.82,1111122 
ENP,ioos.station.NOAA.NDBC:JKYF1:1,2016-09-09T18:00:00Z,25.0530,-80.9040,1.5,35.92,1111122 
ENP,ioos.station.NOAA.NDBC:JKYF1:1,2016-09-09T19:00:00Z,25.0530,-80.9040,1.5,36.03,1111122 
ENP,ioos.station.NOAA.NDBC:JKYF1:1,2016-09-09T20:00:00Z,25.0530,-80.9040,1.5,36.03,1111122 
ENP,ioos.station.NOAA.NDBC:JKYF1:1,2016-09-09T21:00:00Z,25.0530,-80.9040,1.5,35.96,1111122 
ENP,ioos.station.NOAA.NDBC:JKYF1:1,2016-09-09T22:00:00Z,25.0530,-80.9040,1.5,35.91,1111122 
ENP,ioos.station.NOAA.NDBC:JKYF1:1,2016-09-09T23:00:00Z,25.0530,-80.9040,1.5,35.88,1111122 
ENP,ioos.station.NOAA.NDBC:JKYF1:1,2016-09-10T00:00:00Z,25.0530,-80.9040,1.5,35.87,1111122 
ENP,ioos.station.NOAA.NDBC:JKYF1:1,2016-09-10T03:00:00Z,25.0530,-80.9040,1.5,35.98,1111122 
ENP,ioos.station.NOAA.NDBC:JKYF1:1,2016-09-10T06:00:00Z,25.0530,-80.9040,1.5,36.08,1111122 
ENP,ioos.station.NOAA.NDBC:JKYF1:1,2016-09-10T07:00:00Z,25.0530,-80.9040,1.5,36.09,1111122 
ENP,ioos.station.NOAA.NDBC:JKYF1:1,2016-09-10T08:00:00Z,25.0530,-80.9040,1.5,36.08,1111122 
ENP,ioos.station.NOAA.NDBC:JKYF1:1,2016-09-10T10:00:00Z,25.0530,-80.9040,1.5,36.08,1111122 
ENP,ioos.station.NOAA.NDBC:JKYF1:1,2016-09-10T11:00:00Z,25.0530,-80.9040,1.5,36.07,1111122 
ENP,ioos.station.NOAA.NDBC:JKYF1:1,2016-09-10T12:00:00Z,25.0530,-80.9040,1.5,36.08,1111122 
ENP,ioos.station.NOAA.NDBC:JKYF1:1,2016-09-10T13:00:00Z,25.0530,-80.9040,1.5,36.02,1111122 
ENP,ioos.station.NOAA.NDBC:JKYF1:1,2016-09-10T14:00:00Z,25.0530,-80.9040,1.5,36.02,1111122 
ENP,ioos.station.NOAA.NDBC:JKYF1:1,2016-09-10T15:00:00Z,25.0530,-80.9040,1.5,35.99,1111122 
ENP,ioos.station.NOAA.NDBC:JKYF1:1,2016-09-10T16:00:00Z,25.0530,-80.9040,1.5,35.88,1111122 
ENP,ioos.station.NOAA.NDBC:JKYF1:1,2016-09-10T17:00:00Z,25.0530,-80.9040,1.5,35.88,1111122 
ENP,ioos.station.NOAA.NDBC:JKYF1:1,2016-09-10T18:00:00Z,25.0530,-80.9040,1.5,35.88,1111122 
ENP,ioos.station.NOAA.NDBC:JKYF1:1,2016-09-10T19:00:00Z,25.0530,-80.9040,1.5,35.84,1111122 
ENP,ioos.station.NOAA.NDBC:JKYF1:1,2016-09-10T20:00:00Z,25.0530,-80.9040,1.5,35.84,1111122 
ENP,ioos.station.NOAA.NDBC:JKYF1:1,2016-09-10T21:00:00Z,25.0530,-80.9040,1.5,35.94,1111122 
ENP,ioos.station.NOAA.NDBC:JKYF1:1,2016-09-10T22:00:00Z,25.0530,-80.9040,1.5,36.16,1111122 
ENP,ioos.station.NOAA.NDBC:JKYF1:1,2016-09-10T23:00:00Z,25.0530,-80.9040,1.5,36.34,1111122 
ENP,ioos.station.NOAA.NDBC:JKYF1:1,2016-09-11T00:00:00Z,25.0530,-80.9040,1.5,36.44,1111122 
ENP,ioos.station.NOAA.NDBC:JKYF1:1,2016-09-11T03:00:00Z,25.0530,-80.9040,1.5,36.51,1111122 
ENP,ioos.station.NOAA.NDBC:JKYF1:1,2016-09-11T05:00:00Z,25.0530,-80.9040,1.5,36.6,1111122 
ENP,ioos.station.NOAA.NDBC:JKYF1:1,2016-09-11T06:00:00Z,25.0530,-80.9040,1.5,36.71,1111122 
ENP,ioos.station.NOAA.NDBC:JKYF1:1,2016-09-11T07:00:00Z,25.0530,-80.9040,1.5,36.77,1111122 
ENP,ioos.station.NOAA.NDBC:JKYF1:1,2016-09-11T08:00:00Z,25.0530,-80.9040,1.5,36.76,1111122 
ENP,ioos.station.NOAA.NDBC:JKYF1:1,2016-09-11T09:00:00Z,25.0530,-80.9040,1.5,36.69,1111122 
ENP,ioos.station.NOAA.NDBC:JKYF1:1,2016-09-11T11:00:00Z,25.0530,-80.9040,1.5,36.68,1111122 
ENP,ioos.station.NOAA.NDBC:JKYF1:1,2016-09-11T12:00:00Z,25.0530,-80.9040,1.5,36.67,1111122 
ENP,ioos.station.NOAA.NDBC:JKYF1:1,2016-09-11T13:00:00Z,25.0530,-80.9040,1.5,36.67,1111122 
ENP,ioos.station.NOAA.NDBC:JKYF1:1,2016-09-11T14:00:00Z,25.0530,-80.9040,1.5,36.73,1111122 
ENP,ioos.station.NOAA.NDBC:JKYF1:1,2016-09-11T15:00:00Z,25.0530,-80.9040,1.5,36.9,1111122 
ENP,ioos.station.NOAA.NDBC:JKYF1:1,2016-09-11T16:00:00Z,25.0530,-80.9040,1.5,36.98,1111122 
ENP,ioos.station.NOAA.NDBC:JKYF1:1,2016-09-11T17:00:00Z,25.0530,-80.9040,1.5,37.05,1111122 
ENP,ioos.station.NOAA.NDBC:JKYF1:1,2016-09-11T18:00:00Z,25.0530,-80.9040,1.5,36.94,1111122 
ENP,ioos.station.NOAA.NDBC:JKYF1:1,2016-09-11T19:00:00Z,25.0530,-80.9040,1.5,36.86,1111122 
ENP,ioos.station.NOAA.NDBC:JKYF1:1,2016-09-11T20:00:00Z,25.0530,-80.9040,1.5,36.91,1111122 
ENP,ioos.station.NOAA.NDBC:JKYF1:1,2016-09-11T21:00:00Z,25.0530,-80.9040,1.5,36.95,1111122 
ENP,ioos.station.NOAA.NDBC:JKYF1:1,2016-09-11T22:00:00Z,25.0530,-80.9040,1.5,37.01,1111122 
ENP,ioos.station.NOAA.NDBC:JKYF1:1,2016-09-11T23:00:00Z,25.0530,-80.9040,1.5,37.05,1111122 
ENP,ioos.station.NOAA.NDBC:JKYF1:1,2016-09-12T00:00:00Z,25.0530,-80.9040,1.5,37.07,1111122 
ENP,ioos.station.NOAA.NDBC:JKYF1:1,2016-09-12T02:00:00Z,25.0530,-80.9040,1.5,37.12,1111122 
ENP,ioos.station.NOAA.NDBC:JKYF1:1,2016-09-12T03:00:00Z,25.0530,-80.9040,1.5,37.15,1111122 
ENP,ioos.station.NOAA.NDBC:JKYF1:1,2016-09-12T05:00:00Z,25.0530,-80.9040,1.5,37.07,1111122 
ENP,ioos.station.NOAA.NDBC:JKYF1:1,2016-09-12T06:00:00Z,25.0530,-80.9040,1.5,37.06,1111122 
ENP,ioos.station.NOAA.NDBC:JKYF1:1,2016-09-12T07:00:00Z,25.0530,-80.9040,1.5,37.06,1111122 
ENP,ioos.station.NOAA.NDBC:JKYF1:1,2016-09-12T08:00:00Z,25.0530,-80.9040,1.5,36.99,1111122 
ENP,ioos.station.NOAA.NDBC:JKYF1:1,2016-09-12T10:00:00Z,25.0530,-80.9040,1.5,36.92,1111122 
ENP,ioos.station.NOAA.NDBC:JKYF1:1,2016-09-12T11:00:00Z,25.0530,-80.9040,1.5,36.93,1111122 
ENP,ioos.station.NOAA.NDBC:JKYF1:1,2016-09-12T12:00:00Z,25.0530,-80.9040,1.5,36.95,1111122 
ENP,ioos.station.NOAA.NDBC:JKYF1:1,2016-09-12T13:00:00Z,25.0530,-80.9040,1.5,36.95,1111122 
ENP,ioos.station.NOAA.NDBC:JKYF1:1,2016-09-12T14:00:00Z,25.0530,-80.9040,1.5,36.95,1111122 
ENP,ioos.station.NOAA.NDBC:JKYF1:1,2016-09-12T15:00:00Z,25.0530,-80.9040,1.5,36.9,1111122 
ENP,ioos.station.NOAA.NDBC:JKYF1:1,2016-09-12T16:00:00Z,25.0530,-80.9040,1.5,36.93,1111122 
ENP,ioos.station.NOAA.NDBC:JKYF1:1,2016-09-12T17:00:00Z,25.0530,-80.9040,1.5,36.98,1111122 
ENP,ioos.station.NOAA.NDBC:JKYF1:1,2016-09-12T18:00:00Z,25.0530,-80.9040,1.5,36.98,1111122 
ENP,ioos.station.NOAA.NDBC:JKYF1:1,2016-09-12T19:00:00Z,25.0530,-80.9040,1.5,36.97,1111122 
ENP,ioos.station.NOAA.NDBC:JKYF1:1,2016-09-12T20:00:00Z,25.0530,-80.9040,1.5,36.83,1111122 
ENP,ioos.station.NOAA.NDBC:JKYF1:1,2016-09-12T21:00:00Z,25.0530,-80.9040,1.5,36.77,1111122 
ENP,ioos.station.NOAA.NDBC:JKYF1:1,2016-09-12T22:00:00Z,25.0530,-80.9040,1.5,36.77,1111122 
ENP,ioos.station.NOAA.NDBC:JKYF1:1,2016-09-12T23:00:00Z,25.0530,-80.9040,1.5,36.8,1111122 
ENP,ioos.station.NOAA.NDBC:JKYF1:1,2016-09-13T00:00:00Z,25.0530,-80.9040,1.5,36.86,1111122 
ENP,ioos.station.NOAA.NDBC:JKYF1:1,2016-09-13T02:00:00Z,25.0530,-80.9040,1.5,36.97,1111122 
ENP,ioos.station.NOAA.NDBC:JKYF1:1,2016-09-13T03:00:00Z,25.0530,-80.9040,1.5,37.03,1111122 
ENP,ioos.station.NOAA.NDBC:JKYF1:1,2016-09-13T05:00:00Z,25.0530,-80.9040,1.5,37.0,1111122 
ENP,ioos.station.NOAA.NDBC:JKYF1:1,2016-09-13T06:00:00Z,25.0530,-80.9040,1.5,37.09,1111122 
ENP,ioos.station.NOAA.NDBC:JKYF1:1,2016-09-13T07:00:00Z,25.0530,-80.9040,1.5,37.33,1111122 
ENP,ioos.station.NOAA.NDBC:JKYF1:1,2016-09-13T08:00:00Z,25.0530,-80.9040,1.5,37.5,1111122 
ENP,ioos.station.NOAA.NDBC:JKYF1:1,2016-09-13T09:00:00Z,25.0530,-80.9040,1.5,37.6,1111122 
ENP,ioos.station.NOAA.NDBC:JKYF1:1,2016-09-13T10:00:00Z,25.0530,-80.9040,1.5,37.42,1111122 
ENP,ioos.station.NOAA.NDBC:JKYF1:1,2016-09-13T11:00:00Z,25.0530,-80.9040,1.5,37.2,1111122 
ENP,ioos.station.NOAA.NDBC:JKYF1:1,2016-09-13T12:00:00Z,25.0530,-80.9040,1.5,36.83,1111122 
ENP,ioos.station.NOAA.NDBC:JKYF1:1,2016-09-13T13:00:00Z,25.0530,-80.9040,1.5,36.77,1111122 
ENP,ioos.station.NOAA.NDBC:JKYF1:1,2016-09-13T14:00:00Z,25.0530,-80.9040,1.5,36.77,1111122 
ENP,ioos.station.NOAA.NDBC:JKYF1:1,2016-09-13T15:00:00Z,25.0530,-80.9040,1.5,36.91,1111122 
ENP,ioos.station.NOAA.NDBC:JKYF1:1,2016-09-13T16:00:00Z,25.0530,-80.9040,1.5,37.15,1111122 
ENP,ioos.station.NOAA.NDBC:JKYF1:1,2016-09-13T17:00:00Z,25.0530,-80.9040,1.5,37.18,1111122 
ENP,ioos.station.NOAA.NDBC:JKYF1:1,2016-09-13T18:00:00Z,25.0530,-80.9040,1.5,36.34,1111122 
ENP,ioos.station.NOAA.NDBC:JKYF1:1,2016-09-13T19:00:00Z,25.0530,-80.9040,1.5,36.18,1111122 
ENP,ioos.station.NOAA.NDBC:JKYF1:1,2016-09-13T20:00:00Z,25.0530,-80.9040,1.5,36.16,1111122 
ENP,ioos.station.NOAA.NDBC:JKYF1:1,2016-09-13T21:00:00Z,25.0530,-80.9040,1.5,36.08,1111122 
ENP,ioos.station.NOAA.NDBC:JKYF1:1,2016-09-13T22:00:00Z,25.0530,-80.9040,1.5,36.07,1111122 
ENP,ioos.station.NOAA.NDBC:JKYF1:1,2016-09-13T23:00:00Z,25.0530,-80.9040,1.5,36.1,1111122 
ENP,ioos.station.NOAA.NDBC:JKYF1:1,2016-09-14T00:00:00Z,25.0530,-80.9040,1.5,36.28,1111122 
ENP,ioos.station.NOAA.NDBC:JKYF1:1,2016-09-14T01:00:00Z,25.0530,-80.9040,1.5,36.62,1111122 
ENP,ioos.station.NOAA.NDBC:JKYF1:1,2016-09-14T03:00:00Z,25.0530,-80.9040,1.5,37.2,1111122 
ENP,ioos.station.NOAA.NDBC:JKYF1:1,2016-09-14T04:00:00Z,25.0530,-80.9040,1.5,37.28,1111122 
ENP,ioos.station.NOAA.NDBC:JKYF1:1,2016-09-14T06:00:00Z,25.0530,-80.9040,1.5,37.12,1111122 
ENP,ioos.station.NOAA.NDBC:JKYF1:1,2016-09-14T07:00:00Z,25.0530,-80.9040,1.5,36.92,1111122 
ENP,ioos.station.NOAA.NDBC:JKYF1:1,2016-09-14T08:00:00Z,25.0530,-80.9040,1.5,36.71,1111122 
ENP,ioos.station.NOAA.NDBC:JKYF1:1,2016-09-14T10:00:00Z,25.0530,-80.9040,1.5,36.34,1111122 
ENP,ioos.station.NOAA.NDBC:JKYF1:1,2016-09-14T11:00:00Z,25.0530,-80.9040,1.5,36.2,1111122 